Flag for Norway Weather past 2 weeks in Fetsund, Norway

Now
58 °F

Overcast.


Feels Like: 58 °F
Forecast: 49 / 68 °F
Wind: 2 mph from Southwest

Location: Oslo-Blindern

Current Time: Sep 1, 2014 at 9:01:01 PM

Latest Report: Sep 1, 2014 at 8:00 PM


Visibility: 41 mi

Pressure: 30.16 "Hg

Humidity: 64%

Dew point: 46 °F

Location of FetsundLocation

Historic Weather in Fetsund — Graph

°F

Fetsund temperature yesterday

Maximum temperature yesterday: 63 °F (at 3:00 PM)
Minimum temperature yesterday: 53 °F (at 5:00 AM)
Average temperature yesterday: 56 °F

Past Weeks' High & Low Weather Summary

 TemperatureHumidityPressure
High70 °F (Aug 28, 2:00 PM)96% (Aug 20, 3:00 AM)30.22 "Hg (Aug 20, 3:00 AM)
Low46 °F (Aug 24, 6:00 AM)39% (Aug 27, 2:00 PM)29.18 "Hg (Aug 18, 9:00 AM)
Average57 °F74%29.71 "Hg
* Reported Aug 17 7:00 PM — Sep 1 7:00 PM, Fetsund, Weather by CustomWeather, © 2014

Note: Actual official high and low records may vary slightly from our data, if they occured in-between our weather recording intervals... More about our weather records

Advertising

Fetsund weather history for previous 24 hours

 ConditionsComfort  
Time TempWeatherWind HumidityBarometerVisibility
7:00 PM
Sep 1
60 °FCool.3 mph64%30.17 "HgN/A
6:00 PM61 °FRefreshingly cool.2 mph60%30.16 "HgN/A
5:00 PM63 °FMild.3 mph57%30.17 "HgN/A
4:00 PM63 °FMild.3 mph57%30.18 "HgN/A
3:00 PM64 °FMild.2 mph52%30.19 "HgN/A
2:00 PM64 °FOvercast.2 mph54%30.20 "Hg43 mi
1:00 PM63 °FMild.2 mph53%30.21 "HgN/A
12:00 PM63 °FMild.2 mph51%30.21 "HgN/A
11:00 AM62 °FScattered clouds.1 mph62%30.22 "Hg43 mi
10:00 AM58 °FCool.2 mph68%30.22 "HgN/A
9:00 AM55 °FCool.1 mph69%30.22 "HgN/A
8:00 AM52 °FPassing clouds.1 mph77%30.22 "Hg31 mi
7:00 AM47 °FCool.2 mph86%30.21 "HgN/A
6:00 AM47 °FCool.3 mph87%30.20 "HgN/A
5:00 AM47 °FPassing clouds.2 mph88%30.21 "Hg47 mi
4:00 AM47 °FCool.2 mph87%30.22 "HgN/A
3:00 AM48 °FCool.2 mph88%30.22 "HgN/A
2:00 AM50 °FPassing clouds.3 mph87%30.22 "Hg47 mi
1:00 AM50 °FCool.1 mph89%30.22 "HgN/A
12:00 AM53 °FCool.3 mph83%30.21 "HgN/A
11:00 PM
Aug 31
54 °FPassing clouds.2 mph81%30.19 "Hg47 mi
10:00 PM54 °FCool.2 mph78%30.19 "HgN/A
9:00 PM55 °FCool.2 mph79%30.17 "HgN/A
Weather by CustomWeather, © 2014

See weather overviewHow to use our weather pages